R1CBW-13 Weather Reports


time (UTC)temp
C
wind
direction
speed
KPH
gust
KPH
rain 1hr
cm
rain 24hr
cm
rain mn
cm
humidity
%
barometer
mb
20260504110652 18 0 0.0 0.0 0.00 0.00 0.00 46 1002.4
20260504110552 18 0 0.0 0.0 0.00 0.00 0.00 45 1002.4
20260504110452 18 0 0.0 0.0 0.00 0.00 0.00 45 1002.5
20260504110352 18 0 0.0 0.0 0.00 0.00 0.00 45 1002.5
20260504110252 18 0 0.0 0.0 0.00 0.00 0.00 45 1002.5
20260504110152 18 0 0.0 0.0 0.00 0.00 0.00 44 1002.5
20260504100551 19 0 0.0 0.0 0.00 0.00 0.00 43 1003.1
20260504100451 18 0 0.0 0.0 0.00 0.00 0.00 44 1003.1
20260504100351 18 0 0.0 0.0 0.00 0.00 0.00 44 1003.0
20260504100251 18 0 0.0 0.0 0.00 0.00 0.00 44 1003.1
20260504100151 18 0 0.0 0.0 0.00 0.00 0.00 44 1003.1
20260504081949 17 0 0.0 0.0 0.00 0.00 0.00 48 1003.8
20260504081849 17 0 0.0 0.0 0.00 0.00 0.00 48 1003.7
20260504081749 17 0 0.0 0.0 0.00 0.00 0.00 48 1003.8
20260504081649 16 0 0.0 0.0 0.00 0.00 0.00 48 1003.9
20260504081549 16 0 0.0 0.0 0.00 0.00 0.00 48 1003.9
20260504081449 17 0 0.0 0.0 0.00 0.00 0.00 47 1003.8
20260504081349 17 0 0.0 0.0 0.00 0.00 0.00 47 1003.8
20260504081249 17 0 0.0 0.0 0.00 0.00 0.00 46 1003.8
20260504081149 17 0 0.0 0.0 0.00 0.00 0.00 46 1003.8
20260504081049 17 0 0.0 0.0 0.00 0.00 0.00 47 1003.8
20260504080949 17 0 0.0 0.0 0.00 0.00 0.00 47 1003.8
20260504080849 16 0 0.0 0.0 0.00 0.00 0.00 48 1003.8
20260504080749 17 0 0.0 0.0 0.00 0.00 0.00 47 1003.8
20260504080649 17 0 0.0 0.0 0.00 0.00 0.00 48 1003.8
20260504080549 16 0 0.0 0.0 0.00 0.00 0.00 48 1003.8
20260504080449 16 0 0.0 0.0 0.00 0.00 0.00 49 1003.9
20260504080349 17 0 0.0 0.0 0.00 0.00 0.00 47 1003.9
20260504080249 16 0 0.0 0.0 0.00 0.00 0.00 48 1003.9
20260504080149 16 0 0.0 0.0 0.00 0.00 0.00 48 1004.0
20260504070348 16 0 0.0 0.0 0.00 0.00 0.00 48 1004.6
20260504070248 16 0 0.0 0.0 0.00 0.00 0.00 47 1004.5
20260504070148 16 0 0.0 0.0 0.00 0.00 0.00 47 1004.6
20260504060247 14 0 0.0 0.0 0.00 0.00 0.00 53 1004.9
20260504060147 13 0 0.0 0.0 0.00 0.00 0.00 54 1004.9
20260504050746 12 0 0.0 0.0 0.00 0.00 0.00 58 1005.3
20260504050646 13 0 0.0 0.0 0.00 0.00 0.00 58 1005.4
20260504050546 13 0 0.0 0.0 0.00 0.00 0.00 59 1005.3
20260504050446 12 0 0.0 0.0 0.00 0.00 0.00 59 1005.4
20260504050346 12 0 0.0 0.0 0.00 0.00 0.00 60 1005.4
20260504050246 12 0 0.0 0.0 0.00 0.00 0.00 59 1005.3
20260504050146 12 0 0.0 0.0 0.00 0.00 0.00 59 1005.4
20260504045946 12 0 0.0 0.0 0.00 0.00 0.00 60 1005.4
20260504045846 12 0 0.0 0.0 0.00 0.00 0.00 60 1005.4
20260504045746 12 0 0.0 0.0 0.00 0.00 0.00 59 1005.4
20260504045646 12 0 0.0 0.0 0.00 0.00 0.00 60 1005.4
20260504045546 12 0 0.0 0.0 0.00 0.00 0.00 61 1005.5
20260504045446 13 0 0.0 0.0 0.00 0.00 0.00 59 1005.4
20260504045346 13 0 0.0 0.0 0.00 0.00 0.00 60 1005.4
20260504045246 13 0 0.0 0.0 0.00 0.00 0.00 60 1005.5
20260504045146 13 0 0.0 0.0 0.00 0.00 0.00 59 1005.5
20260504045046 13 0 0.0 0.0 0.00 0.00 0.00 60 1005.5
20260504044946 12 0 0.0 0.0 0.00 0.00 0.00 60 1005.6
20260504044846 13 0 0.0 0.0 0.00 0.00 0.00 60 1005.6
20260504044746 13 0 0.0 0.0 0.00 0.00 0.00 60 1005.5
20260504044646 13 0 0.0 0.0 0.00 0.00 0.00 61 1005.5
20260504044546 12 0 0.0 0.0 0.00 0.00 0.00 61 1005.5
20260504044446 12 0 0.0 0.0 0.00 0.00 0.00 62 1005.6
20260504044346 12 0 0.0 0.0 0.00 0.00 0.00 62 1005.6
20260504044246 12 0 0.0 0.0 0.00 0.00 0.00 62 1005.5
20260504044146 12 0 0.0 0.0 0.00 0.00 0.00 62 1005.6
20260504044046 12 0 0.0 0.0 0.00 0.00 0.00 63 1005.6
20260504043946 12 0 0.0 0.0 0.00 0.00 0.00 62 1005.6
20260504043846 12 0 0.0 0.0 0.00 0.00 0.00 62 1005.6
20260504043746 12 0 0.0 0.0 0.00 0.00 0.00 61 1005.6
20260504043646 12 0 0.0 0.0 0.00 0.00 0.00 62 1005.6
20260504043546 12 0 0.0 0.0 0.00 0.00 0.00 62 1005.6
20260504043446 12 0 0.0 0.0 0.00 0.00 0.00 61 1005.6
20260504043346 12 0 0.0 0.0 0.00 0.00 0.00 61 1005.6
20260504043246 12 0 0.0 0.0 0.00 0.00 0.00 61 1005.6
20260504043146 12 0 0.0 0.0 0.00 0.00 0.00 61 1005.7
20260504043046 12 0 0.0 0.0 0.00 0.00 0.00 61 1005.6
20260504042946 12 0 0.0 0.0 0.00 0.00 0.00 61 1005.6
20260504042846 12 0 0.0 0.0 0.00 0.00 0.00 61 1005.6
20260504042746 12 0 0.0 0.0 0.00 0.00 0.00 62 1005.7
20260504042646 12 0 0.0 0.0 0.00 0.00 0.00 61 1005.6
20260504042546 12 0 0.0 0.0 0.00 0.00 0.00 60 1005.6
20260504042446 12 0 0.0 0.0 0.00 0.00 0.00 60 1005.6
20260504042346 12 0 0.0 0.0 0.00 0.00 0.00 60 1005.6
20260504042246 12 0 0.0 0.0 0.00 0.00 0.00 60 1005.6
20260504042146 12 0 0.0 0.0 0.00 0.00 0.00 60 1005.6
20260504042046 12 0 0.0 0.0 0.00 0.00 0.00 60 1005.6
20260504041946 12 0 0.0 0.0 0.00 0.00 0.00 60 1005.6
20260504041846 12 0 0.0 0.0 0.00 0.00 0.00 60 1005.6
20260504041746 12 0 0.0 0.0 0.00 0.00 0.00 60 1005.7
20260504041646 12 0 0.0 0.0 0.00 0.00 0.00 61 1005.6
20260504041546 12 0 0.0 0.0 0.00 0.00 0.00 62 1005.7
20260504041446 12 0 0.0 0.0 0.00 0.00 0.00 61 1005.7
20260504041346 12 0 0.0 0.0 0.00 0.00 0.00 61 1005.7
20260504041246 12 0 0.0 0.0 0.00 0.00 0.00 61 1005.7
20260504041146 12 0 0.0 0.0 0.00 0.00 0.00 61 1005.7
20260504041046 12 0 0.0 0.0 0.00 0.00 0.00 62 1005.7
20260504040946 12 0 0.0 0.0 0.00 0.00 0.00 62 1005.7
20260504040846 12 0 0.0 0.0 0.00 0.00 0.00 62 1005.6
20260504040746 12 0 0.0 0.0 0.00 0.00 0.00 62 1005.7
20260504040646 12 0 0.0 0.0 0.00 0.00 0.00 62 1005.7
20260504040546 12 0 0.0 0.0 0.00 0.00 0.00 62 1005.7
20260504040446 12 0 0.0 0.0 0.00 0.00 0.00 62 1005.7
20260504040346 12 0 0.0 0.0 0.00 0.00 0.00 62 1005.7
20260504040246 12 0 0.0 0.0 0.00 0.00 0.00 61 1005.7
20260504040146 12 0 0.0 0.0 0.00 0.00 0.00 61 1005.7
20260504040046 12 0 0.0 0.0 0.00 0.00 0.00 62 1005.7
20260504035946 12 0 0.0 0.0 0.00 0.00 0.00 62 1005.7
20260504035845 12 0 0.0 0.0 0.00 0.00 0.00 62 1005.7
20260504035745 11 0 0.0 0.0 0.00 0.00 0.00 62 1005.7
20260504035646 12 0 0.0 0.0 0.00 0.00 0.00 61 1005.8
20260504035546 12 0 0.0 0.0 0.00 0.00 0.00 61 1005.7
20260504035445 12 0 0.0 0.0 0.00 0.00 0.00 61 1005.7
20260504035345 12 0 0.0 0.0 0.00 0.00 0.00 61 1005.7
20260504035245 12 0 0.0 0.0 0.00 0.00 0.00 61 1005.7
20260504035145 12 0 0.0 0.0 0.00 0.00 0.00 62 1005.7
20260504035045 11 0 0.0 0.0 0.00 0.00 0.00 62 1005.7
20260504034945 11 0 0.0 0.0 0.00 0.00 0.00 62 1005.7
20260504034845 12 0 0.0 0.0 0.00 0.00 0.00 62 1005.7
20260504034745 12 0 0.0 0.0 0.00 0.00 0.00 62 1005.7
20260504034645 12 0 0.0 0.0 0.00 0.00 0.00 62 1005.6
20260504034545 11 0 0.0 0.0 0.00 0.00 0.00 63 1005.7
20260504034445 11 0 0.0 0.0 0.00 0.00 0.00 64 1005.7
20260504034345 11 0 0.0 0.0 0.00 0.00 0.00 65 1005.7
20260504034245 11 0 0.0 0.0 0.00 0.00 0.00 66 1005.7
20260504034145 11 0 0.0 0.0 0.00 0.00 0.00 66 1005.7
20260504034045 11 0 0.0 0.0 0.00 0.00 0.00 65 1005.7
20260504033945 11 0 0.0 0.0 0.00 0.00 0.00 65 1005.6
20260504033845 11 0 0.0 0.0 0.00 0.00 0.00 64 1005.7
20260504033745 11 0 0.0 0.0 0.00 0.00 0.00 64 1005.8
20260504033645 11 0 0.0 0.0 0.00 0.00 0.00 63 1005.7
20260504033545 11 0 0.0 0.0 0.00 0.00 0.00 64 1005.7
20260504033445 11 0 0.0 0.0 0.00 0.00 0.00 64 1005.7
20260504033345 11 0 0.0 0.0 0.00 0.00 0.00 64 1005.7
20260504033245 11 0 0.0 0.0 0.00 0.00 0.00 63 1005.8
20260504033145 11 0 0.0 0.0 0.00 0.00 0.00 63 1005.8
20260504033045 11 0 0.0 0.0 0.00 0.00 0.00 63 1005.7
20260504032945 11 0 0.0 0.0 0.00 0.00 0.00 64 1005.7
20260504032845 11 0 0.0 0.0 0.00 0.00 0.00 63 1005.8
20260504032745 11 0 0.0 0.0 0.00 0.00 0.00 63 1005.8
20260504032645 11 0 0.0 0.0 0.00 0.00 0.00 64 1005.8
20260504032545 11 0 0.0 0.0 0.00 0.00 0.00 63 1005.8
20260504032445 11 0 0.0 0.0 0.00 0.00 0.00 63 1005.8
20260504032345 11 0 0.0 0.0 0.00 0.00 0.00 64 1005.8
20260504032245 11 0 0.0 0.0 0.00 0.00 0.00 63 1005.7
20260504032145 11 0 0.0 0.0 0.00 0.00 0.00 63 1005.7
20260504032045 11 0 0.0 0.0 0.00 0.00 0.00 63 1005.8
20260504031945 11 0 0.0 0.0 0.00 0.00 0.00 63 1005.7
20260504031845 11 0 0.0 0.0 0.00 0.00 0.00 65 1005.8
20260504031745 11 0 0.0 0.0 0.00 0.00 0.00 66 1005.8
20260504031645 11 0 0.0 0.0 0.00 0.00 0.00 65 1005.7
20260504031545 11 0 0.0 0.0 0.00 0.00 0.00 64 1005.9
20260504031445 11 0 0.0 0.0 0.00 0.00 0.00 64 1005.8
20260504031345 11 0 0.0 0.0 0.00 0.00 0.00 64 1005.9
20260504031245 11 0 0.0 0.0 0.00 0.00 0.00 65 1005.8
20260504031145 11 0 0.0 0.0 0.00 0.00 0.00 65 1005.8
20260504031045 11 0 0.0 0.0 0.00 0.00 0.00 65 1005.8
20260504030945 11 0 0.0 0.0 0.00 0.00 0.00 64 1005.8
20260504030845 11 0 0.0 0.0 0.00 0.00 0.00 64 1005.8
20260504030745 11 0 0.0 0.0 0.00 0.00 0.00 64 1005.8
20260504030645 11 0 0.0 0.0 0.00 0.00 0.00 65 1005.9
20260504030544 11 0 0.0 0.0 0.00 0.00 0.00 65 1005.8
20260504030445 10 0 0.0 0.0 0.00 0.00 0.00 66 1005.8
20260504030345 11 0 0.0 0.0 0.00 0.00 0.00 64 1005.8
20260504030244 11 0 0.0 0.0 0.00 0.00 0.00 62 1005.8
20260504030145 11 0 0.0 0.0 0.00 0.00 0.00 63 1005.8
20260504030044 11 0 0.0 0.0 0.00 0.00 0.00 62 1005.8
20260504025944 11 0 0.0 0.0 0.00 0.00 0.00 63 1005.8
20260504025844 11 0 0.0 0.0 0.00 0.00 0.00 63 1005.9
20260504025744 11 0 0.0 0.0 0.00 0.00 0.00 63 1005.9
20260504025644 11 0 0.0 0.0 0.00 0.00 0.00 63 1005.9
20260504025544 11 0 0.0 0.0 0.00 0.00 0.00 63 1005.9
20260504025444 11 0 0.0 0.0 0.00 0.00 0.00 62 1005.9
20260504025344 11 0 0.0 0.0 0.00 0.00 0.00 63 1005.9
20260504025244 11 0 0.0 0.0 0.00 0.00 0.00 63 1005.9
20260504025144 11 0 0.0 0.0 0.00 0.00 0.00 63 1005.9
20260504025044 11 0 0.0 0.0 0.00 0.00 0.00 63 1005.9
20260504024944 11 0 0.0 0.0 0.00 0.00 0.00 63 1006.0
20260504024844 11 0 0.0 0.0 0.00 0.00 0.00 63 1005.9
20260504024744 11 0 0.0 0.0 0.00 0.00 0.00 63 1005.9
20260504024644 11 0 0.0 0.0 0.00 0.00 0.00 63 1005.9
20260504024544 11 0 0.0 0.0 0.00 0.00 0.00 62 1005.9
20260504024444 11 0 0.0 0.0 0.00 0.00 0.00 63 1005.9
20260504024344 11 0 0.0 0.0 0.00 0.00 0.00 64 1006.0
20260504024244 11 0 0.0 0.0 0.00 0.00 0.00 64 1006.0
20260504024144 10 0 0.0 0.0 0.00 0.00 0.00 65 1006.0
20260504024044 10 0 0.0 0.0 0.00 0.00 0.00 65 1006.0
20260504023944 10 0 0.0 0.0 0.00 0.00 0.00 64 1006.0
20260504023844 11 0 0.0 0.0 0.00 0.00 0.00 63 1006.0
20260504023744 11 0 0.0 0.0 0.00 0.00 0.00 63 1006.0
20260504023644 11 0 0.0 0.0 0.00 0.00 0.00 63 1006.0
20260504023544 11 0 0.0 0.0 0.00 0.00 0.00 63 1006.0
20260504023444 11 0 0.0 0.0 0.00 0.00 0.00 63 1006.0
20260504023344 11 0 0.0 0.0 0.00 0.00 0.00 63 1005.9
20260504023244 11 0 0.0 0.0 0.00 0.00 0.00 63 1006.0
20260504023144 11 0 0.0 0.0 0.00 0.00 0.00 63 1006.1
20260504023044 11 0 0.0 0.0 0.00 0.00 0.00 63 1006.1
20260504022944 11 0 0.0 0.0 0.00 0.00 0.00 63 1006.0
20260504022844 11 0 0.0 0.0 0.00 0.00 0.00 63 1006.0
20260504022744 11 0 0.0 0.0 0.00 0.00 0.00 63 1006.0
20260504022644 11 0 0.0 0.0 0.00 0.00 0.00 64 1006.0
20260504022544 11 0 0.0 0.0 0.00 0.00 0.00 63 1006.0
20260504022444 11 0 0.0 0.0 0.00 0.00 0.00 64 1006.0
20260504022344 11 0 0.0 0.0 0.00 0.00 0.00 64 1006.0
20260504022244 11 0 0.0 0.0 0.00 0.00 0.00 64 1006.0
20260504022144 11 0 0.0 0.0 0.00 0.00 0.00 64 1006.0
20260504022044 10 0 0.0 0.0 0.00 0.00 0.00 65 1006.0
20260504021944 10 0 0.0 0.0 0.00 0.00 0.00 66 1006.0
20260504021844 10 0 0.0 0.0 0.00 0.00 0.00 67 1006.0
20260504021744 10 0 0.0 0.0 0.00 0.00 0.00 68 1006.1
20260504021644 9 0 0.0 0.0 0.00 0.00 0.00 68 1006.1
20260504021544 10 0 0.0 0.0 0.00 0.00 0.00 67 1006.1
20260504021444 10 0 0.0 0.0 0.00 0.00 0.00 68 1006.1
20260504021344 10 0 0.0 0.0 0.00 0.00 0.00 66 1006.1
20260504021244 10 0 0.0 0.0 0.00 0.00 0.00 66 1006.1
20260504021144 10 0 0.0 0.0 0.00 0.00 0.00 66 1006.1
20260504021044 10 0 0.0 0.0 0.00 0.00 0.00 66 1006.1
20260504020944 10 0 0.0 0.0 0.00 0.00 0.00 65 1006.1
20260504020844 11 0 0.0 0.0 0.00 0.00 0.00 64 1006.1
20260504020744 10 0 0.0 0.0 0.00 0.00 0.00 64 1006.1
20260504020644 11 0 0.0 0.0 0.00 0.00 0.00 63 1006.0
20260504020544 11 0 0.0 0.0 0.00 0.00 0.00 63 1006.1
20260504020444 11 0 0.0 0.0 0.00 0.00 0.00 63 1006.0
20260504020344 11 0 0.0 0.0 0.00 0.00 0.00 64 1006.0
20260504020244 11 0 0.0 0.0 0.00 0.00 0.00 64 1006.1
20260504020143 10 0 0.0 0.0 0.00 0.00 0.00 64 1006.1
20260504020043 10 0 0.0 0.0 0.00 0.00 0.00 64 1006.2
20260504015944 10 0 0.0 0.0 0.00 0.00 0.00 65 1006.1
20260504015843 10 0 0.0 0.0 0.00 0.00 0.00 66 1006.1
20260504015743 10 0 0.0 0.0 0.00 0.00 0.00 68 1006.1
20260504015643 10 0 0.0 0.0 0.00 0.00 0.00 68 1006.1
20260504015544 10 0 0.0 0.0 0.00 0.00 0.00 67 1006.2
20260504015443 10 0 0.0 0.0 0.00 0.00 0.00 67 1006.2
20260504015343 10 0 0.0 0.0 0.00 0.00 0.00 66 1006.1
20260504015243 10 0 0.0 0.0 0.00 0.00 0.00 66 1006.2
20260504015143 10 0 0.0 0.0 0.00 0.00 0.00 68 1006.2
20260504015043 10 0 0.0 0.0 0.00 0.00 0.00 68 1006.2
20260504014943 10 0 0.0 0.0 0.00 0.00 0.00 66 1006.1
20260504014843 10 0 0.0 0.0 0.00 0.00 0.00 66 1006.2
20260504014743 10 0 0.0 0.0 0.00 0.00 0.00 65 1006.2
20260504014643 10 0 0.0 0.0 0.00 0.00 0.00 65 1006.2
20260504014543 10 0 0.0 0.0 0.00 0.00 0.00 66 1006.2
20260504014443 10 0 0.0 0.0 0.00 0.00 0.00 66 1006.1
20260504014343 10 0 0.0 0.0 0.00 0.00 0.00 65 1006.2
20260504014243 10 0 0.0 0.0 0.00 0.00 0.00 66 1006.2
20260504014143 10 0 0.0 0.0 0.00 0.00 0.00 66 1006.2
20260504014043 10 0 0.0 0.0 0.00 0.00 0.00 66 1006.2
20260504013943 10 0 0.0 0.0 0.00 0.00 0.00 66 1006.3
20260504013843 10 0 0.0 0.0 0.00 0.00 0.00 67 1006.2
20260504013743 10 0 0.0 0.0 0.00 0.00 0.00 67 1006.3
20260504013643 10 0 0.0 0.0 0.00 0.00 0.00 65 1006.3
20260504013543 10 0 0.0 0.0 0.00 0.00 0.00 64 1006.3
20260504013443 11 0 0.0 0.0 0.00 0.00 0.00 63 1006.3
20260504013343 10 0 0.0 0.0 0.00 0.00 0.00 63 1006.4
20260504013243 11 0 0.0 0.0 0.00 0.00 0.00 62 1006.3
20260504013143 11 0 0.0 0.0 0.00 0.00 0.00 62 1006.4
20260504013043 11 0 0.0 0.0 0.00 0.00 0.00 63 1006.4
20260504012943 11 0 0.0 0.0 0.00 0.00 0.00 63 1006.4
20260504012843 11 0 0.0 0.0 0.00 0.00 0.00 62 1006.4
20260504012743 11 0 0.0 0.0 0.00 0.00 0.00 61 1006.4
20260504012643 11 0 0.0 0.0 0.00 0.00 0.00 61 1006.4
20260504012543 11 0 0.0 0.0 0.00 0.00 0.00 61 1006.3
20260504012443 11 0 0.0 0.0 0.00 0.00 0.00 62 1006.4
20260504012343 11 0 0.0 0.0 0.00 0.00 0.00 62 1006.4
20260504012243 11 0 0.0 0.0 0.00 0.00 0.00 61 1006.3
20260504012143 11 0 0.0 0.0 0.00 0.00 0.00 62 1006.4
20260504012043 11 0 0.0 0.0 0.00 0.00 0.00 62 1006.4
20260504011943 11 0 0.0 0.0 0.00 0.00 0.00 61 1006.5
20260504011843 11 0 0.0 0.0 0.00 0.00 0.00 62 1006.5
20260504011743 11 0 0.0 0.0 0.00 0.00 0.00 62 1006.4
20260504011643 11 0 0.0 0.0 0.00 0.00 0.00 61 1006.4
20260504011543 11 0 0.0 0.0 0.00 0.00 0.00 61 1006.4
20260504011443 11 0 0.0 0.0 0.00 0.00 0.00 62 1006.5
20260504011342 11 0 0.0 0.0 0.00 0.00 0.00 61 1006.4
20260504011243 11 0 0.0 0.0 0.00 0.00 0.00 62 1006.4
20260504011143 11 0 0.0 0.0 0.00 0.00 0.00 62 1006.5
20260504011042 11 0 0.0 0.0 0.00 0.00 0.00 62 1006.5
20260504010942 11 0 0.0 0.0 0.00 0.00 0.00 62 1006.5
20260504010842 11 0 0.0 0.0 0.00 0.00 0.00 63 1006.5
20260504010743 11 0 0.0 0.0 0.00 0.00 0.00 63 1006.5
20260504010642 11 0 0.0 0.0 0.00 0.00 0.00 62 1006.5
20260504010542 11 0 0.0 0.0 0.00 0.00 0.00 62 1006.5
20260504010442 11 0 0.0 0.0 0.00 0.00 0.00 62 1006.5
20260504010342 11 0 0.0 0.0 0.00 0.00 0.00 62 1006.5
20260504010242 11 0 0.0 0.0 0.00 0.00 0.00 63 1006.5
20260504010142 11 0 0.0 0.0 0.00 0.00 0.00 62 1006.5
20260504010042 11 0 0.0 0.0 0.00 0.00 0.00 62 1006.5
20260504005942 11 0 0.0 0.0 0.00 0.00 0.00 62 1006.5
20260504005842 11 0 0.0 0.0 0.00 0.00 0.00 62 1006.6
20260504005742 11 0 0.0 0.0 0.00 0.00 0.00 62 1006.5
20260504005642 11 0 0.0 0.0 0.00 0.00 0.00 62 1006.6
20260504005542 11 0 0.0 0.0 0.00 0.00 0.00 63 1006.6
20260504005442 11 0 0.0 0.0 0.00 0.00 0.00 63 1006.6
20260504005342 10 0 0.0 0.0 0.00 0.00 0.00 64 1006.5
20260504005242 11 0 0.0 0.0 0.00 0.00 0.00 63 1006.5
20260504005142 11 0 0.0 0.0 0.00 0.00 0.00 63 1006.6
20260504005042 11 0 0.0 0.0 0.00 0.00 0.00 63 1006.5
20260504004942 11 0 0.0 0.0 0.00 0.00 0.00 64 1006.5
20260504004842 11 0 0.0 0.0 0.00 0.00 0.00 64 1006.5
20260504004742 11 0 0.0 0.0 0.00 0.00 0.00 64 1006.5
20260504004642 11 0 0.0 0.0 0.00 0.00 0.00 65 1006.6
20260504004542 11 0 0.0 0.0 0.00 0.00 0.00 65 1006.6
20260504004442 10 0 0.0 0.0 0.00 0.00 0.00 65 1006.5
20260504004342 10 0 0.0 0.0 0.00 0.00 0.00 65 1006.5
20260504004242 10 0 0.0 0.0 0.00 0.00 0.00 66 1006.6
20260504004142 10 0 0.0 0.0 0.00 0.00 0.00 66 1006.6
20260504004042 10 0 0.0 0.0 0.00 0.00 0.00 66 1006.6
20260504003942 10 0 0.0 0.0 0.00 0.00 0.00 65 1006.6
20260504003842 10 0 0.0 0.0 0.00 0.00 0.00 65 1006.6
20260504003742 10 0 0.0 0.0 0.00 0.00 0.00 65 1006.6
20260504003642 10 0 0.0 0.0 0.00 0.00 0.00 65 1006.6
20260504003542 10 0 0.0 0.0 0.00 0.00 0.00 64 1006.7
20260504003442 11 0 0.0 0.0 0.00 0.00 0.00 63 1006.7
20260504003342 11 0 0.0 0.0 0.00 0.00 0.00 63 1006.7
20260504003242 11 0 0.0 0.0 0.00 0.00 0.00 63 1006.7
20260504003142 11 0 0.0 0.0 0.00 0.00 0.00 62 1006.7
20260504003042 11 0 0.0 0.0 0.00 0.00 0.00 63 1006.7
20260504002942 11 0 0.0 0.0 0.00 0.00 0.00 62 1006.7
20260504002842 11 0 0.0 0.0 0.00 0.00 0.00 62 1006.7
20260504002742 11 0 0.0 0.0 0.00 0.00 0.00 62 1006.8
20260504002642 11 0 0.0 0.0 0.00 0.00 0.00 62 1006.7
20260504002542 11 0 0.0 0.0 0.00 0.00 0.00 62 1006.8
20260504002442 11 0 0.0 0.0 0.00 0.00 0.00 62 1006.7
20260504002342 11 0 0.0 0.0 0.00 0.00 0.00 62 1006.8
20260504002242 10 0 0.0 0.0 0.00 0.00 0.00 63 1006.8
20260504002142 11 0 0.0 0.0 0.00 0.00 0.00 63 1006.8
20260504002042 10 0 0.0 0.0 0.00 0.00 0.00 64 1006.8
20260504001942 10 0 0.0 0.0 0.00 0.00 0.00 64 1006.8
20260504001842 10 0 0.0 0.0 0.00 0.00 0.00 65 1006.9
20260504001742 10 0 0.0 0.0 0.00 0.00 0.00 65 1006.8
20260504001642 10 0 0.0 0.0 0.00 0.00 0.00 64 1006.8
20260504001541 11 0 0.0 0.0 0.00 0.00 0.00 61 1006.9
20260504001442 11 0 0.0 0.0 0.00 0.00 0.00 62 1006.9
20260504001342 11 0 0.0 0.0 0.00 0.00 0.00 62 1006.9
20260504001241 11 0 0.0 0.0 0.00 0.00 0.00 62 1006.9
20260504001141 11 0 0.0 0.0 0.00 0.00 0.00 61 1006.8
20260504001041 11 0 0.0 0.0 0.00 0.00 0.00 62 1006.7
20260504000942 11 0 0.0 0.0 0.00 0.00 0.00 61 1006.8
20260504000841 11 0 0.0 0.0 0.00 0.00 0.00 61 1006.7
20260504000741 11 0 0.0 0.0 0.00 0.00 0.00 62 1006.8
20260504000641 11 0 0.0 0.0 0.00 0.00 0.00 62 1006.8
20260504000542 11 0 0.0 0.0 0.00 0.00 0.00 62 1006.9
20260504000441 11 0 0.0 0.0 0.00 0.00 0.00 62 1006.8
20260504000341 11 0 0.0 0.0 0.00 0.00 0.00 62 1006.8
20260504000241 11 0 0.0 0.0 0.00 0.00 0.00 62 1006.9
20260504000141 11 0 0.0 0.0 0.00 0.00 0.00 62 1006.8
20260504000041 11 0 0.0 0.0 0.00 0.00 0.00 62 1006.9
20260503235941 11 0 0.0 0.0 0.00 0.00 0.00 62 1006.8
20260503235841 11 0 0.0 0.0 0.00 0.00 0.00 62 1006.9
20260503235741 11 0 0.0 0.0 0.00 0.00 0.00 62 1006.9
20260503235641 11 0 0.0 0.0 0.00 0.00 0.00 63 1006.9
20260503235541 11 0 0.0 0.0 0.00 0.00 0.00 62 1006.9
20260503235441 11 0 0.0 0.0 0.00 0.00 0.00 62 1006.9
20260503235341 11 0 0.0 0.0 0.00 0.00 0.00 63 1006.9
20260503235241 11 0 0.0 0.0 0.00 0.00 0.00 63 1007.0
20260503235141 11 0 0.0 0.0 0.00 0.00 0.00 63 1007.0
20260503235041 11 0 0.0 0.0 0.00 0.00 0.00 63 1007.0
20260503234941 11 0 0.0 0.0 0.00 0.00 0.00 63 1007.0
20260503234841 11 0 0.0 0.0 0.00 0.00 0.00 63 1006.9
20260503234741 10 0 0.0 0.0 0.00 0.00 0.00 63 1007.0
20260503234641 10 0 0.0 0.0 0.00 0.00 0.00 64 1007.0
20260503234541 10 0 0.0 0.0 0.00 0.00 0.00 64 1007.0
20260503234441 10 0 0.0 0.0 0.00 0.00 0.00 64 1007.0
20260503234341 10 0 0.0 0.0 0.00 0.00 0.00 64 1007.0
20260503234241 10 0 0.0 0.0 0.00 0.00 0.00 63 1006.9
20260503234141 10 0 0.0 0.0 0.00 0.00 0.00 61 1007.0
20260503234041 11 0 0.0 0.0 0.00 0.00 0.00 60 1007.0
20260503233941 11 0 0.0 0.0 0.00 0.00 0.00 60 1007.0
20260503233841 11 0 0.0 0.0 0.00 0.00 0.00 61 1007.0
20260503233741 11 0 0.0 0.0 0.00 0.00 0.00 61 1006.9
20260503233641 10 0 0.0 0.0 0.00 0.00 0.00 61 1006.9
20260503233541 10 0 0.0 0.0 0.00 0.00 0.00 61 1006.9
20260503233441 10 0 0.0 0.0 0.00 0.00 0.00 61 1007.0
20260503233341 10 0 0.0 0.0 0.00 0.00 0.00 61 1006.9
20260503233241 10 0 0.0 0.0 0.00 0.00 0.00 62 1007.0
20260503233141 10 0 0.0 0.0 0.00 0.00 0.00 62 1007.1
20260503233041 10 0 0.0 0.0 0.00 0.00 0.00 61 1007.0
20260503232941 10 0 0.0 0.0 0.00 0.00 0.00 61 1007.0
20260503232841 11 0 0.0 0.0 0.00 0.00 0.00 61 1007.0
20260503232741 11 0 0.0 0.0 0.00 0.00 0.00 60 1007.0
20260503232641 11 0 0.0 0.0 0.00 0.00 0.00 60 1006.9
20260503232541 11 0 0.0 0.0 0.00 0.00 0.00 60 1007.0
20260503232441 11 0 0.0 0.0 0.00 0.00 0.00 60 1007.0
20260503232341 11 0 0.0 0.0 0.00 0.00 0.00 61 1007.0
20260503232241 11 0 0.0 0.0 0.00 0.00 0.00 61 1007.0
20260503232141 11 0 0.0 0.0 0.00 0.00 0.00 61 1007.0
20260503232041 11 0 0.0 0.0 0.00 0.00 0.00 61 1006.9
20260503231941 11 0 0.0 0.0 0.00 0.00 0.00 61 1007.0
20260503231841 11 0 0.0 0.0 0.00 0.00 0.00 60 1007.0
20260503231741 11 0 0.0 0.0 0.00 0.00 0.00 59 1006.9
20260503231641 11 0 0.0 0.0 0.00 0.00 0.00 59 1006.9
20260503231541 11 0 0.0 0.0 0.00 0.00 0.00 59 1007.0
20260503231441 11 0 0.0 0.0 0.00 0.00 0.00 59 1007.0
20260503231341 11 0 0.0 0.0 0.00 0.00 0.00 59 1007.0
20260503231241 11 0 0.0 0.0 0.00 0.00 0.00 59 1007.0
20260503231141 11 0 0.0 0.0 0.00 0.00 0.00 59 1007.0
20260503231041 11 0 0.0 0.0 0.00 0.00 0.00 59 1007.0
20260503230941 11 0 0.0 0.0 0.00 0.00 0.00 59 1007.1
20260503230841 11 0 0.0 0.0 0.00 0.00 0.00 59 1007.1
20260503230741 11 0 0.0 0.0 0.00 0.00 0.00 59 1007.1
20260503230641 11 0 0.0 0.0 0.00 0.00 0.00 59 1007.1
20260503230541 11 0 0.0 0.0 0.00 0.00 0.00 59 1007.0
20260503230441 11 0 0.0 0.0 0.00 0.00 0.00 59 1007.1
20260503230341 11 0 0.0 0.0 0.00 0.00 0.00 60 1007.0
20260503230241 11 0 0.0 0.0 0.00 0.00 0.00 60 1007.1
20260503230141 11 0 0.0 0.0 0.00 0.00 0.00 60 1007.1
20260503230041 11 0 0.0 0.0 0.00 0.00 0.00 59 1007.0
20260503225941 11 0 0.0 0.0 0.00 0.00 0.00 60 1007.0
20260503225841 11 0 0.0 0.0 0.00 0.00 0.00 60 1007.1
20260503225740 11 0 0.0 0.0 0.00 0.00 0.00 59 1007.0
20260503225640 11 0 0.0 0.0 0.00 0.00 0.00 59 1007.0
20260503225540 11 0 0.0 0.0 0.00 0.00 0.00 59 1007.1
20260503225440 11 0 0.0 0.0 0.00 0.00 0.00 59 1007.1
20260503225340 11 0 0.0 0.0 0.00 0.00 0.00 59 1007.1
20260503225240 11 0 0.0 0.0 0.00 0.00 0.00 59 1007.0
20260503225140 11 0 0.0 0.0 0.00 0.00 0.00 58 1007.1
20260503225040 11 0 0.0 0.0 0.00 0.00 0.00 58 1007.1
20260503224940 11 0 0.0 0.0 0.00 0.00 0.00 58 1007.1
20260503224840 11 0 0.0 0.0 0.00 0.00 0.00 58 1007.1
20260503224740 11 0 0.0 0.0 0.00 0.00 0.00 58 1007.2
20260503224640 11 0 0.0 0.0 0.00 0.00 0.00 58 1007.1
20260503224540 11 0 0.0 0.0 0.00 0.00 0.00 58 1007.1
20260503224440 11 0 0.0 0.0 0.00 0.00 0.00 58 1007.1
20260503224340 11 0 0.0 0.0 0.00 0.00 0.00 58 1007.1
20260503224240 11 0 0.0 0.0 0.00 0.00 0.00 57 1007.1
20260503224140 11 0 0.0 0.0 0.00 0.00 0.00 57 1007.1
20260503224040 11 0 0.0 0.0 0.00 0.00 0.00 57 1007.0
20260503223940 11 0 0.0 0.0 0.00 0.00 0.00 58 1007.1
20260503223840 11 0 0.0 0.0 0.00 0.00 0.00 58 1007.2
20260503223740 11 0 0.0 0.0 0.00 0.00 0.00 58 1007.1
20260503223640 10 0 0.0 0.0 0.00 0.00 0.00 59 1007.1
20260503223540 11 0 0.0 0.0 0.00 0.00 0.00 58 1007.1
20260503223440 11 0 0.0 0.0 0.00 0.00 0.00 58 1007.1
20260503223340 11 0 0.0 0.0 0.00 0.00 0.00 57 1007.1
20260503223240 11 0 0.0 0.0 0.00 0.00 0.00 56 1007.1
20260503223140 11 0 0.0 0.0 0.00 0.00 0.00 57 1007.1
20260503223040 11 0 0.0 0.0 0.00 0.00 0.00 57 1007.1
20260503222940 11 0 0.0 0.0 0.00 0.00 0.00 57 1007.1
20260503222840 11 0 0.0 0.0 0.00 0.00 0.00 58 1007.1
20260503222740 11 0 0.0 0.0 0.00 0.00 0.00 57 1007.1
20260503222640 11 0 0.0 0.0 0.00 0.00 0.00 57 1007.0
20260503222540 11 0 0.0 0.0 0.00 0.00 0.00 56 1007.0
20260503222440 11 0 0.0 0.0 0.00 0.00 0.00 57 1007.0
20260503222340 11 0 0.0 0.0 0.00 0.00 0.00 56 1007.0
20260503222240 11 0 0.0 0.0 0.00 0.00 0.00 56 1007.0
20260503222140 11 0 0.0 0.0 0.00 0.00 0.00 56 1007.0
20260503222040 11 0 0.0 0.0 0.00 0.00 0.00 56 1006.9
20260503221940 11 0 0.0 0.0 0.00 0.00 0.00 56 1007.0
20260503221840 11 0 0.0 0.0 0.00 0.00 0.00 56 1007.0
20260503221740 11 0 0.0 0.0 0.00 0.00 0.00 56 1006.9
20260503221640 11 0 0.0 0.0 0.00 0.00 0.00 56 1006.8
20260503221540 11 0 0.0 0.0 0.00 0.00 0.00 56 1006.9
20260503221440 11 0 0.0 0.0 0.00 0.00 0.00 57 1006.9
20260503221340 11 0 0.0 0.0 0.00 0.00 0.00 56 1006.9
20260503221240 11 0 0.0 0.0 0.00 0.00 0.00 56 1006.9
20260503221140 11 0 0.0 0.0 0.00 0.00 0.00 57 1006.9
20260503221040 11 0 0.0 0.0 0.00 0.00 0.00 56 1006.9
20260503220940 11 0 0.0 0.0 0.00 0.00 0.00 55 1006.9
20260503220840 11 0 0.0 0.0 0.00 0.00 0.00 56 1006.9
20260503220740 11 0 0.0 0.0 0.00 0.00 0.00 57 1006.9
20260503220640 11 0 0.0 0.0 0.00 0.00 0.00 57 1006.9
20260503220540 12 0 0.0 0.0 0.00 0.00 0.00 56 1006.9
20260503220440 11 0 0.0 0.0 0.00 0.00 0.00 56 1007.0
20260503220340 12 0 0.0 0.0 0.00 0.00 0.00 54 1006.9
20260503220240 12 0 0.0 0.0 0.00 0.00 0.00 55 1006.9
20260503220140 12 0 0.0 0.0 0.00 0.00 0.00 55 1006.9
20260503220040 12 0 0.0 0.0 0.00 0.00 0.00 56 1006.9
20260503215940 12 0 0.0 0.0 0.00 0.00 0.00 56 1006.9
20260503215840 12 0 0.0 0.0 0.00 0.00 0.00 56 1006.9
20260503215740 11 0 0.0 0.0 0.00 0.00 0.00 57 1006.9
20260503215640 11 0 0.0 0.0 0.00 0.00 0.00 57 1007.0
20260503215540 11 0 0.0 0.0 0.00 0.00 0.00 57 1007.0
20260503215440 11 0 0.0 0.0 0.00 0.00 0.00 57 1007.0
20260503215340 11 0 0.0 0.0 0.00 0.00 0.00 57 1006.9
20260503215240 11 0 0.0 0.0 0.00 0.00 0.00 57 1006.9
20260503215140 11 0 0.0 0.0 0.00 0.00 0.00 58 1007.0
20260503215040 11 0 0.0 0.0 0.00 0.00 0.00 58 1006.9
20260503214940 11 0 0.0 0.0 0.00 0.00 0.00 58 1006.9
20260503214840 11 0 0.0 0.0 0.00 0.00 0.00 58 1006.9
20260503214740 11 0 0.0 0.0 0.00 0.00 0.00 58 1006.9
20260503214640 11 0 0.0 0.0 0.00 0.00 0.00 58 1007.0
20260503214540 11 0 0.0 0.0 0.00 0.00 0.00 58 1007.0
20260503214440 11 0 0.0 0.0 0.00 0.00 0.00 57 1006.9
20260503214340 11 0 0.0 0.0 0.00 0.00 0.00 56 1007.0
20260503214240 12 0 0.0 0.0 0.00 0.00 0.00 55 1006.9
20260503214140 12 0 0.0 0.0 0.00 0.00 0.00 54 1007.0
20260503214040 12 0 0.0 0.0 0.00 0.00 0.00 53 1006.9
20260503213940 12 0 0.0 0.0 0.00 0.00 0.00 53 1007.0
20260503213840 12 0 0.0 0.0 0.00 0.00 0.00 53 1007.0
20260503213740 12 0 0.0 0.0 0.00 0.00 0.00 53 1007.0
20260503213640 12 0 0.0 0.0 0.00 0.00 0.00 53 1006.9
20260503213540 12 0 0.0 0.0 0.00 0.00 0.00 54 1007.0
20260503213440 12 0 0.0 0.0 0.00 0.00 0.00 53 1007.0
20260503213340 12 0 0.0 0.0 0.00 0.00 0.00 54 1007.0
20260503213240 11 0 0.0 0.0 0.00 0.00 0.00 55 1007.0
20260503213139 11 0 0.0 0.0 0.00 0.00 0.00 55 1007.0
20260503213040 11 0 0.0 0.0 0.00 0.00 0.00 54 1007.0
20260503212939 12 0 0.0 0.0 0.00 0.00 0.00 54 1007.0
20260503212839 11 0 0.0 0.0 0.00 0.00 0.00 55 1007.0
20260503212739 12 0 0.0 0.0 0.00 0.00 0.00 53 1007.0
20260503212639 12 0 0.0 0.0 0.00 0.00 0.00 53 1007.0
20260503212539 12 0 0.0 0.0 0.00 0.00 0.00 53 1006.9
20260503212440 12 0 0.0 0.0 0.00 0.00 0.00 52 1007.0
20260503212339 12 0 0.0 0.0 0.00 0.00 0.00 53 1007.0
20260503212239 12 0 0.0 0.0 0.00 0.00 0.00 53 1007.0
20260503212140 12 0 0.0 0.0 0.00 0.00 0.00 52 1007.0
20260503212039 12 0 0.0 0.0 0.00 0.00 0.00 53 1007.0
20260503211939 12 0 0.0 0.0 0.00 0.00 0.00 53 1007.0
20260503211839 12 0 0.0 0.0 0.00 0.00 0.00 53 1007.0
20260503211739 12 0 0.0 0.0 0.00 0.00 0.00 53 1007.0
20260503211639 12 0 0.0 0.0 0.00 0.00 0.00 53 1007.0
20260503211539 12 0 0.0 0.0 0.00 0.00 0.00 53 1007.0
20260503211439 12 0 0.0 0.0 0.00 0.00 0.00 52 1006.9
20260503211339 12 0 0.0 0.0 0.00 0.00 0.00 51 1007.0
20260503211239 12 0 0.0 0.0 0.00 0.00 0.00 52 1007.0
20260503211139 12 0 0.0 0.0 0.00 0.00 0.00 52 1007.1
20260503211039 12 0 0.0 0.0 0.00 0.00 0.00 52 1007.0
20260503210939 12 0 0.0 0.0 0.00 0.00 0.00 53 1007.0
20260503210839 12 0 0.0 0.0 0.00 0.00 0.00 52 1007.0
20260503210739 12 0 0.0 0.0 0.00 0.00 0.00 51 1007.0
20260503210639 12 0 0.0 0.0 0.00 0.00 0.00 51 1007.1
20260503210539 12 0 0.0 0.0 0.00 0.00 0.00 52 1007.0
20260503210439 12 0 0.0 0.0 0.00 0.00 0.00 52 1007.1
20260503210339 12 0 0.0 0.0 0.00 0.00 0.00 53 1007.1
20260503210239 12 0 0.0 0.0 0.00 0.00 0.00 53 1007.2
20260503210139 12 0 0.0 0.0 0.00 0.00 0.00 53 1007.2
20260503210039 12 0 0.0 0.0 0.00 0.00 0.00 53 1007.2
20260503205939 12 0 0.0 0.0 0.00 0.00 0.00 54 1007.3
20260503205839 12 0 0.0 0.0 0.00 0.00 0.00 53 1007.3
20260503205739 12 0 0.0 0.0 0.00 0.00 0.00 53 1007.2
20260503205639 12 0 0.0 0.0 0.00 0.00 0.00 53 1007.3
20260503205539 12 0 0.0 0.0 0.00 0.00 0.00 53 1007.2
20260503205439 12 0 0.0 0.0 0.00 0.00 0.00 52 1007.2
20260503205339 12 0 0.0 0.0 0.00 0.00 0.00 53 1007.3
20260503205239 12 0 0.0 0.0 0.00 0.00 0.00 52 1007.2
20260503205139 12 0 0.0 0.0 0.00 0.00 0.00 52 1007.2
20260503205039 12 0 0.0 0.0 0.00 0.00 0.00 53 1007.2
20260503204939 11 0 0.0 0.0 0.00 0.00 0.00 54 1007.2
20260503204839 11 0 0.0 0.0 0.00 0.00 0.00 54 1007.2
20260503204739 11 0 0.0 0.0 0.00 0.00 0.00 54 1007.2
20260503204639 12 0 0.0 0.0 0.00 0.00 0.00 52 1007.2
20260503204539 12 0 0.0 0.0 0.00 0.00 0.00 52 1007.2
20260503204439 12 0 0.0 0.0 0.00 0.00 0.00 53 1007.2
20260503204339 12 0 0.0 0.0 0.00 0.00 0.00 53 1007.3
20260503204239 12 0 0.0 0.0 0.00 0.00 0.00 53 1007.3
20260503204139 12 0 0.0 0.0 0.00 0.00 0.00 53 1007.3
20260503204039 11 0 0.0 0.0 0.00 0.00 0.00 54 1007.3
20260503203939 11 0 0.0 0.0 0.00 0.00 0.00 54 1007.4
20260503203839 11 0 0.0 0.0 0.00 0.00 0.00 55 1007.3
20260503203739 11 0 0.0 0.0 0.00 0.00 0.00 55 1007.3
20260503203639 11 0 0.0 0.0 0.00 0.00 0.00 54 1007.3
20260503203539 12 0 0.0 0.0 0.00 0.00 0.00 53 1007.3
20260503203439 12 0 0.0 0.0 0.00 0.00 0.00 53 1007.3
20260503203339 12 0 0.0 0.0 0.00 0.00 0.00 53 1007.3
20260503203239 12 0 0.0 0.0 0.00 0.00 0.00 53 1007.3
20260503203139 11 0 0.0 0.0 0.00 0.00 0.00 54 1007.2
20260503203039 12 0 0.0 0.0 0.00 0.00 0.00 53 1007.3
20260503202939 12 0 0.0 0.0 0.00 0.00 0.00 53 1007.3
20260503202839 12 0 0.0 0.0 0.00 0.00 0.00 53 1007.3
20260503202739 12 0 0.0 0.0 0.00 0.00 0.00 54 1007.3
20260503202639 12 0 0.0 0.0 0.00 0.00 0.00 54 1007.2
20260503202539 12 0 0.0 0.0 0.00 0.00 0.00 54 1007.2
20260503202439 12 0 0.0 0.0 0.00 0.00 0.00 54 1007.3
20260503202339 12 0 0.0 0.0 0.00 0.00 0.00 54 1007.4
20260503202239 12 0 0.0 0.0 0.00 0.00 0.00 55 1007.3
20260503202139 12 0 0.0 0.0 0.00 0.00 0.00 54 1007.3
20260503202039 12 0 0.0 0.0 0.00 0.00 0.00 54 1007.3
20260503201939 12 0 0.0 0.0 0.00 0.00 0.00 55 1007.3
20260503201839 11 0 0.0 0.0 0.00 0.00 0.00 55 1007.3
20260503201739 12 0 0.0 0.0 0.00 0.00 0.00 54 1007.3
20260503201639 12 0 0.0 0.0 0.00 0.00 0.00 55 1007.4
20260503201539 11 0 0.0 0.0 0.00 0.00 0.00 55 1007.3
20260503201439 11 0 0.0 0.0 0.00 0.00 0.00 55 1007.4
20260503201339 12 0 0.0 0.0 0.00 0.00 0.00 54 1007.4
20260503201239 12 0 0.0 0.0 0.00 0.00 0.00 55 1007.4
20260503201139 11 0 0.0 0.0 0.00 0.00 0.00 55 1007.4
20260503201039 12 0 0.0 0.0 0.00 0.00 0.00 54 1007.3
20260503200939 12 0 0.0 0.0 0.00 0.00 0.00 54 1007.2
20260503200839 12 0 0.0 0.0 0.00 0.00 0.00 54 1007.3
20260503200739 12 0 0.0 0.0 0.00 0.00 0.00 54 1007.2
20260503200639 12 0 0.0 0.0 0.00 0.00 0.00 54 1007.2
20260503200539 12 0 0.0 0.0 0.00 0.00 0.00 52 1007.2
20260503200439 12 0 0.0 0.0 0.00 0.00 0.00 52 1007.2
20260503200339 12 0 0.0 0.0 0.00 0.00 0.00 53 1007.2
20260503200239 12 0 0.0 0.0 0.00 0.00 0.00 53 1007.3
20260503200139 12 0 0.0 0.0 0.00 0.00 0.00 54 1007.3
20260503200039 12 0 0.0 0.0 0.00 0.00 0.00 53 1007.2
20260503195939 12 0 0.0 0.0 0.00 0.00 0.00 53 1007.2
20260503195839 12 0 0.0 0.0 0.00 0.00 0.00 54 1007.3
20260503195738 12 0 0.0 0.0 0.00 0.00 0.00 54 1007.3
20260503195638 12 0 0.0 0.0 0.00 0.00 0.00 53 1007.3
20260503195538 12 0 0.0 0.0 0.00 0.00 0.00 54 1007.3
20260503195439 12 0 0.0 0.0 0.00 0.00 0.00 54 1007.3
20260503195338 12 0 0.0 0.0 0.00 0.00 0.00 54 1007.4
20260503195238 12 0 0.0 0.0 0.00 0.00 0.00 53 1007.3
20260503195138 12 0 0.0 0.0 0.00 0.00 0.00 53 1007.3
20260503195039 12 0 0.0 0.0 0.00 0.00 0.00 54 1007.3
20260503194938 12 0 0.0 0.0 0.00 0.00 0.00 54 1007.3
20260503194838 12 0 0.0 0.0 0.00 0.00 0.00 54 1007.4
20260503194738 12 0 0.0 0.0 0.00 0.00 0.00 54 1007.3
20260503194638 12 0 0.0 0.0 0.00 0.00 0.00 54 1007.4
20260503194538 12 0 0.0 0.0 0.00 0.00 0.00 52 1007.3
20260503194438 12 0 0.0 0.0 0.00 0.00 0.00 53 1007.4
20260503194338 13 0 0.0 0.0 0.00 0.00 0.00 52 1007.3
20260503194238 13 0 0.0 0.0 0.00 0.00 0.00 51 1007.3
20260503194138 13 0 0.0 0.0 0.00 0.00 0.00 52 1007.3
20260503194038 12 0 0.0 0.0 0.00 0.00 0.00 53 1007.3
20260503193938 12 0 0.0 0.0 0.00 0.00 0.00 54 1007.3
20260503193838 12 0 0.0 0.0 0.00 0.00 0.00 54 1007.3
20260503193738 13 0 0.0 0.0 0.00 0.00 0.00 52 1007.2
20260503193638 12 0 0.0 0.0 0.00 0.00 0.00 53 1007.3
20260503193538 12 0 0.0 0.0 0.00 0.00 0.00 52 1007.2
20260503193438 12 0 0.0 0.0 0.00 0.00 0.00 52 1007.2
20260503193338 13 0 0.0 0.0 0.00 0.00 0.00 52 1007.2
20260503193238 12 0 0.0 0.0 0.00 0.00 0.00 53 1007.3
20260503193138 12 0 0.0 0.0 0.00 0.00 0.00 54 1007.2
20260503193038 12 0 0.0 0.0 0.00 0.00 0.00 53 1007.3
20260503192938 12 0 0.0 0.0 0.00 0.00 0.00 54 1007.3
20260503192838 12 0 0.0 0.0 0.00 0.00 0.00 53 1007.2
20260503192738 12 0 0.0 0.0 0.00 0.00 0.00 53 1007.3
20260503192638 12 0 0.0 0.0 0.00 0.00 0.00 53 1007.3
20260503192538 12 0 0.0 0.0 0.00 0.00 0.00 54 1007.2
20260503192438 12 0 0.0 0.0 0.00 0.00 0.00 54 1007.3
20260503192338 12 0 0.0 0.0 0.00 0.00 0.00 54 1007.2
20260503192238 12 0 0.0 0.0 0.00 0.00 0.00 53 1007.3
20260503192138 12 0 0.0 0.0 0.00 0.00 0.00 53 1007.3
20260503192038 12 0 0.0 0.0 0.00 0.00 0.00 53 1007.2
20260503191938 12 0 0.0 0.0 0.00 0.00 0.00 54 1007.3
20260503191838 12 0 0.0 0.0 0.00 0.00 0.00 53 1007.3
20260503191738 12 0 0.0 0.0 0.00 0.00 0.00 53 1007.3
20260503191638 12 0 0.0 0.0 0.00 0.00 0.00 54 1007.3
20260503191538 12 0 0.0 0.0 0.00 0.00 0.00 54 1007.3
20260503191438 12 0 0.0 0.0 0.00 0.00 0.00 54 1007.2
20260503191338 11 0 0.0 0.0 0.00 0.00 0.00 55 1007.3
20260503191238 11 0 0.0 0.0 0.00 0.00 0.00 55 1007.3
20260503191138 12 0 0.0 0.0 0.00 0.00 0.00 54 1007.3
20260503191038 12 0 0.0 0.0 0.00 0.00 0.00 54 1007.3
20260503190938 12 0 0.0 0.0 0.00 0.00 0.00 54 1007.3
20260503190838 12 0 0.0 0.0 0.00 0.00 0.00 54 1007.3
20260503190738 12 0 0.0 0.0 0.00 0.00 0.00 54 1007.3
20260503190638 12 0 0.0 0.0 0.00 0.00 0.00 53 1007.2
20260503190538 12 0 0.0 0.0 0.00 0.00 0.00 54 1007.2
20260503190438 12 0 0.0 0.0 0.00 0.00 0.00 54 1007.3
20260503190338 12 0 0.0 0.0 0.00 0.00 0.00 54 1007.3
20260503190238 12 0 0.0 0.0 0.00 0.00 0.00 53 1007.2
20260503190138 12 0 0.0 0.0 0.00 0.00 0.00 53 1007.2
20260503190038 12 0 0.0 0.0 0.00 0.00 0.00 53 1007.2
20260503185938 12 0 0.0 0.0 0.00 0.00 0.00 53 1007.2
20260503185838 12 0 0.0 0.0 0.00 0.00 0.00 52 1007.2
20260503185738 12 0 0.0 0.0 0.00 0.00 0.00 53 1007.2
20260503185638 12 0 0.0 0.0 0.00 0.00 0.00 53 1007.2
20260503185538 12 0 0.0 0.0 0.00 0.00 0.00 52 1007.1
20260503185438 12 0 0.0 0.0 0.00 0.00 0.00 52 1007.1
20260503185338 12 0 0.0 0.0 0.00 0.00 0.00 52 1007.1
20260503185238 12 0 0.0 0.0 0.00 0.00 0.00 52 1007.1
20260503185138 12 0 0.0 0.0 0.00 0.00 0.00 53 1007.1
20260503185038 12 0 0.0 0.0 0.00 0.00 0.00 53 1007.1
20260503184938 12 0 0.0 0.0 0.00 0.00 0.00 53 1007.1
20260503184838 12 0 0.0 0.0 0.00 0.00 0.00 52 1007.1
20260503184738 12 0 0.0 0.0 0.00 0.00 0.00 53 1007.2
20260503184638 12 0 0.0 0.0 0.00 0.00 0.00 53 1007.1
20260503184538 12 0 0.0 0.0 0.00 0.00 0.00 52 1007.1
20260503184438 12 0 0.0 0.0 0.00 0.00 0.00 52 1007.1
20260503184338 12 0 0.0 0.0 0.00 0.00 0.00 52 1007.0
20260503184238 12 0 0.0 0.0 0.00 0.00 0.00 52 1007.1
20260503184138 12 0 0.0 0.0 0.00 0.00 0.00 52 1007.1
20260503184038 12 0 0.0 0.0 0.00 0.00 0.00 52 1007.0
20260503183938 12 0 0.0 0.0 0.00 0.00 0.00 52 1007.1
20260503183838 12 0 0.0 0.0 0.00 0.00 0.00 52 1007.0
20260503183738 13 0 0.0 0.0 0.00 0.00 0.00 51 1007.0
20260503183638 13 0 0.0 0.0 0.00 0.00 0.00 51 1007.0
20260503183538 13 0 0.0 0.0 0.00 0.00 0.00 51 1007.1
20260503183438 13 0 0.0 0.0 0.00 0.00 0.00 51 1007.1
20260503183338 13 0 0.0 0.0 0.00 0.00 0.00 51 1007.1
20260503183238 13 0 0.0 0.0 0.00 0.00 0.00 51 1007.2
20260503183138 13 0 0.0 0.0 0.00 0.00 0.00 51 1007.2
20260503183037 13 0 0.0 0.0 0.00 0.00 0.00 52 1007.2
20260503182937 12 0 0.0 0.0 0.00 0.00 0.00 52 1007.2
20260503182837 13 0 0.0 0.0 0.00 0.00 0.00 52 1007.2
20260503182738 13 0 0.0 0.0 0.00 0.00 0.00 52 1007.2
20260503182637 13 0 0.0 0.0 0.00 0.00 0.00 52 1007.2
20260503182537 13 0 0.0 0.0 0.00 0.00 0.00 51 1007.2
20260503182437 13 0 0.0 0.0 0.00 0.00 0.00 51 1007.2
20260503182337 13 0 0.0 0.0 0.00 0.00 0.00 51 1007.2
20260503182238 13 0 0.0 0.0 0.00 0.00 0.00 52 1007.2
20260503182138 13 0 0.0 0.0 0.00 0.00 0.00 52 1007.1
20260503182038 12 0 0.0 0.0 0.00 0.00 0.00 52 1007.2
20260503181937 12 0 0.0 0.0 0.00 0.00 0.00 52 1007.3
20260503181837 12 0 0.0 0.0 0.00 0.00 0.00 52 1007.3
20260503181737 13 0 0.0 0.0 0.00 0.00 0.00 52 1007.3
20260503181637 12 0 0.0 0.0 0.00 0.00 0.00 52 1007.2
20260503181537 13 0 0.0 0.0 0.00 0.00 0.00 52 1007.2
20260503181437 12 0 0.0 0.0 0.00 0.00 0.00 52 1007.2
20260503181337 12 0 0.0 0.0 0.00 0.00 0.00 52 1007.2
20260503181237 13 0 0.0 0.0 0.00 0.00 0.00 51 1007.1
20260503181137 13 0 0.0 0.0 0.00 0.00 0.00 52 1007.1
20260503181037 13 0 0.0 0.0 0.00 0.00 0.00 52 1007.1
20260503180937 13 0 0.0 0.0 0.00 0.00 0.00 52 1007.1
20260503180837 12 0 0.0 0.0 0.00 0.00 0.00 53 1007.2
20260503180737 12 0 0.0 0.0 0.00 0.00 0.00 54 1007.1
20260503180637 12 0 0.0 0.0 0.00 0.00 0.00 53 1007.1
20260503180537 12 0 0.0 0.0 0.00 0.00 0.00 53 1007.1
20260503180437 12 0 0.0 0.0 0.00 0.00 0.00 52 1007.1
20260503180337 12 0 0.0 0.0 0.00 0.00 0.00 53 1007.0
20260503180237 12 0 0.0 0.0 0.00 0.00 0.00 52 1007.1
20260503180137 12 0 0.0 0.0 0.00 0.00 0.00 53 1007.1
20260503180037 12 0 0.0 0.0 0.00 0.00 0.00 53 1007.1
20260503175937 13 0 0.0 0.0 0.00 0.00 0.00 52 1007.0
20260503175837 12 0 0.0 0.0 0.00 0.00 0.00 53 1007.1
20260503175737 12 0 0.0 0.0 0.00 0.00 0.00 52 1007.1
20260503175637 12 0 0.0 0.0 0.00 0.00 0.00 53 1007.1
20260503175537 12 0 0.0 0.0 0.00 0.00 0.00 53 1007.0
20260503175437 13 0 0.0 0.0 0.00 0.00 0.00 51 1007.0
20260503175337 13 0 0.0 0.0 0.00 0.00 0.00 52 1007.0
20260503175237 12 0 0.0 0.0 0.00 0.00 0.00 53 1007.0
20260503175137 12 0 0.0 0.0 0.00 0.00 0.00 52 1007.0
20260503175037 12 0 0.0 0.0 0.00 0.00 0.00 53 1007.0
20260503174937 12 0 0.0 0.0 0.00 0.00 0.00 53 1007.0
20260503174837 12 0 0.0 0.0 0.00 0.00 0.00 52 1007.0
20260503174737 12 0 0.0 0.0 0.00 0.00 0.00 52 1006.9
20260503174637 12 0 0.0 0.0 0.00 0.00 0.00 53 1007.0
20260503174537 12 0 0.0 0.0 0.00 0.00 0.00 53 1007.0
20260503174437 13 0 0.0 0.0 0.00 0.00 0.00 52 1006.9
20260503174337 13 0 0.0 0.0 0.00 0.00 0.00 52 1007.0
20260503174237 13 0 0.0 0.0 0.00 0.00 0.00 52 1006.9
20260503174137 12 0 0.0 0.0 0.00 0.00 0.00 53 1007.0
20260503174037 12 0 0.0 0.0 0.00 0.00 0.00 53 1007.0
20260503173937 12 0 0.0 0.0 0.00 0.00 0.00 53 1007.0
20260503173837 12 0 0.0 0.0 0.00 0.00 0.00 53 1007.1
20260503173737 13 0 0.0 0.0 0.00 0.00 0.00 52 1006.9
20260503173637 12 0 0.0 0.0 0.00 0.00 0.00 52 1006.8
20260503173537 13 0 0.0 0.0 0.00 0.00 0.00 51 1006.9
20260503173437 13 0 0.0 0.0 0.00 0.00 0.00 52 1006.9
20260503173337 12 0 0.0 0.0 0.00 0.00 0.00 53 1007.0
20260503173237 13 0 0.0 0.0 0.00 0.00 0.00 52 1006.9
20260503173137 13 0 0.0 0.0 0.00 0.00 0.00 52 1007.0
20260503173037 12 0 0.0 0.0 0.00 0.00 0.00 52 1006.9
20260503172937 12 0 0.0 0.0 0.00 0.00 0.00 52 1007.0
20260503172837 12 0 0.0 0.0 0.00 0.00 0.00 52 1007.0
20260503172737 12 0 0.0 0.0 0.00 0.00 0.00 52 1007.0
20260503172637 12 0 0.0 0.0 0.00 0.00 0.00 53 1007.0
20260503172537 12 0 0.0 0.0 0.00 0.00 0.00 52 1007.1
20260503172437 13 0 0.0 0.0 0.00 0.00 0.00 52 1007.0
20260503172337 12 0 0.0 0.0 0.00 0.00 0.00 52 1007.0
20260503172237 13 0 0.0 0.0 0.00 0.00 0.00 51 1006.9
20260503172137 13 0 0.0 0.0 0.00 0.00 0.00 52 1006.9
20260503172037 13 0 0.0 0.0 0.00 0.00 0.00 50 1006.9
20260503171937 13 0 0.0 0.0 0.00 0.00 0.00 50 1006.9
20260503171837 13 0 0.0 0.0 0.00 0.00 0.00 51 1006.9
20260503171736 13 0 0.0 0.0 0.00 0.00 0.00 52 1007.0
20260503171636 13 0 0.0 0.0 0.00 0.00 0.00 50 1007.0
20260503171537 13 0 0.0 0.0 0.00 0.00 0.00 51 1006.9
20260503171436 13 0 0.0 0.0 0.00 0.00 0.00 50 1006.9
20260503171337 13 0 0.0 0.0 0.00 0.00 0.00 51 1006.9
20260503171236 13 0 0.0 0.0 0.00 0.00 0.00 51 1006.9
20260503171136 13 0 0.0 0.0 0.00 0.00 0.00 51 1007.0
20260503171036 13 0 0.0 0.0 0.00 0.00 0.00 51 1006.9
20260503170936 13 0 0.0 0.0 0.00 0.00 0.00 51 1006.9
20260503170836 13 0 0.0 0.0 0.00 0.00 0.00 50 1006.9
20260503170736 13 0 0.0 0.0 0.00 0.00 0.00 50 1006.9
20260503170636 13 0 0.0 0.0 0.00 0.00 0.00 49 1007.0
20260503170536 13 0 0.0 0.0 0.00 0.00 0.00 49 1006.9
20260503170436 13 0 0.0 0.0 0.00 0.00 0.00 49 1006.9
20260503170336 13 0 0.0 0.0 0.00 0.00 0.00 48 1006.9
20260503170236 14 0 0.0 0.0 0.00 0.00 0.00 48 1006.9
20260503170136 13 0 0.0 0.0 0.00 0.00 0.00 49 1006.9
20260503160135 15 0 0.0 0.0 0.00 0.00 0.00 45 1006.9
20260503150935 13 0 0.0 0.0 0.00 0.00 0.00 50 1007.0
20260503150835 14 0 0.0 0.0 0.00 0.00 0.00 49 1006.9
20260503150735 14 0 0.0 0.0 0.00 0.00 0.00 49 1006.8
20260503150635 14 0 0.0 0.0 0.00 0.00 0.00 49 1006.9
20260503150535 13 0 0.0 0.0 0.00 0.00 0.00 49 1006.8
20260503150435 13 0 0.0 0.0 0.00 0.00 0.00 50 1006.9
20260503150335 13 0 0.0 0.0 0.00 0.00 0.00 50 1006.8
20260503150234 13 0 0.0 0.0 0.00 0.00 0.00 50 1006.9
20260503150134 14 0 0.0 0.0 0.00 0.00 0.00 49 1006.8
20260503140234 12 0 0.0 0.0 0.00 0.00 0.00 54 1006.9
20260503140134 12 0 0.0 0.0 0.00 0.00 0.00 53 1006.9
20260503131333 12 0 0.0 0.0 0.00 0.00 0.00 59 1006.6
20260503131233 12 0 0.0 0.0 0.00 0.00 0.00 60 1006.9
20260503131133 12 0 0.0 0.0 0.00 0.00 0.00 60 1006.7
20260503131033 12 0 0.0 0.0 0.00 0.00 0.00 58 1006.7
20260503130933 12 0 0.0 0.0 0.00 0.00 0.00 59 1006.8
20260503130833 12 0 0.0 0.0 0.00 0.00 0.00 58 1006.7
20260503130733 12 0 0.0 0.0 0.00 0.00 0.00 58 1006.5
20260503130633 13 0 0.0 0.0 0.00 0.00 0.00 58 1006.6
20260503130533 13 0 0.0 0.0 0.00 0.00 0.00 58 1006.6
20260503130433 12 0 0.0 0.0 0.00 0.00 0.00 58 1006.6
20260503130333 12 0 0.0 0.0 0.00 0.00 0.00 59 1006.6
20260503130233 12 0 0.0 0.0 0.00 0.00 0.00 60 1006.6
20260503130133 12 0 0.0 0.0 0.00 0.00 0.00 60 1006.6
20260503120132 12 0 0.0 0.0 0.00 0.00 0.00 55 1006.4